"read_dt","SO2 (ppb)","flags","PMT voltage (V)","lamp voltage (V)","lamp intensity (Hz)","internal temp (C)","react chamber temp (C)","sample flow (l/min)","pres (mmHg)","SO2 bkg (ppb)","SO2 coefficient"
2017-02-05 00:00:00,2006E-3,5C000000,-0724,0838,12033,027.1,045.4,0.441,753.0,01.17,0.508
2017-02-05 00:01:00,1920E-3,5C000000,-0724,0837,11917,027.1,045.4,0.442,753.0,01.17,0.508
2017-02-05 00:02:00,1872E-3,5C000000,-0724,0837,12102,027.1,045.4,0.441,753.0,01.17,0.508
2017-02-05 00:03:00,1910E-3,5C000000,-0724,0837,12130,027.1,045.4,0.441,753.0,01.17,0.508
2017-02-05 00:04:00,1883E-3,5C000000,-0724,0838,12014,027.1,045.4,0.442,753.0,01.17,0.508
2017-02-05 00:05:00,1904E-3,5C000000,-0724,0838,12150,027.1,045.4,0.442,753.0,01.17,0.508
2017-02-05 00:06:00,1850E-3,5C000000,-0724,0838,12060,027.1,045.4,0.441,753.0,01.17,0.508
2017-02-05 00:07:00,1834E-3,5C000000,-0724,0837,12170,027.1,045.4,0.441,753.0,01.17,0.508
2017-02-05 00:08:00,1833E-3,5C000000,-0724,0837,12089,027.1,045.4,0.442,753.0,01.17,0.508
2017-02-05 00:09:00,1825E-3,5C000000,-0724,0838,12039,027.1,045.4,0.441,753.0,01.17,0.508
2017-02-05 00:10:00,1725E-3,5C000000,-0724,0837,12046,027.1,045.4,0.441,753.0,01.17,0.508
2017-02-05 00:11:00,1925E-3,5C000000,-0724,0838,12081,027.1,045.4,0.442,753.0,01.17,0.508
2017-02-05 00:12:00,1852E-3,5C000000,-0724,0838,12137,027.1,045.4,0.441,753.0,01.17,0.508
2017-02-05 00:13:00,1740E-3,5C000000,-0724,0837,12189,027.1,045.4,0.441,753.0,01.17,0.508
2017-02-05 00:14:00,1772E-3,5C000000,-0724,0837,12132,027.1,045.4,0.442,753.0,01.17,0.508
2017-02-05 00:15:00,1950E-3,5C000000,-0724,0837,11867,027.1,045.4,0.442,753.0,01.17,0.508
2017-02-05 00:16:00,1741E-3,5C000000,-0724,0838,12098,027.1,045.4,0.441,753.0,01.17,0.508
2017-02-05 00:17:00,1844E-3,5C000000,-0724,0837,12032,027.1,045.4,0.442,753.0,01.17,0.508
2017-02-05 00:18:00,1896E-3,5C000000,-0724,0837,11984,027.1,045.4,0.442,753.0,01.17,0.508
2017-02-05 00:19:00,1785E-3,5C000000,-0724,0837,12079,027.1,045.4,0.441,753.1,01.17,0.508
2017-02-05 00:20:00,1885E-3,5C000000,-0724,0837,12168,027.1,045.4,0.442,753.1,01.17,0.508
2017-02-05 00:21:00,1923E-3,5C000000,-0724,0837,11858,027.1,045.4,0.442,753.1,01.17,0.508
2017-02-05 00:22:00,1886E-3,5C000000,-0724,0837,12017,027.1,045.4,0.441,753.1,01.17,0.508
2017-02-05 00:23:00,1773E-3,5C000000,-0724,0836,12152,027.1,045.4,0.442,753.1,01.17,0.508
2017-02-05 00:24:00,1779E-3,5C000000,-0724,0837,11998,027.1,045.4,0.442,753.1,01.17,0.508
2017-02-05 00:25:00,1853E-3,5C000000,-0724,0838,11947,027.1,045.4,0.441,753.1,01.17,0.508
2017-02-05 00:26:00,1678E-3,5C000000,-0724,0838,12100,027.1,045.4,0.441,753.1,01.17,0.508
2017-02-05 00:27:00,1847E-3,5C000000,-0724,0838,12047,027.1,045.4,0.442,753.1,01.17,0.508
2017-02-05 00:28:00,1927E-3,5C000000,-0724,0838,12176,027.1,045.4,0.441,753.1,01.17,0.508
2017-02-05 00:29:00,1929E-3,5C000000,-0724,0837,12039,027.1,045.4,0.441,753.1,01.17,0.508
2017-02-05 00:30:00,1751E-3,5C000000,-0724,0837,12049,027.1,045.4,0.442,753.1,01.17,0.508
2017-02-05 00:31:00,1905E-3,5C000000,-0724,0837,12088,027.1,045.4,0.441,753.1,01.17,0.508
2017-02-05 00:32:00,1856E-3,5C000000,-0724,0838,12195,027.1,045.4,0.441,753.1,01.17,0.508
2017-02-05 00:33:00,1759E-3,5C000000,-0724,0838,12129,027.1,045.4,0.442,753.1,01.17,0.508
2017-02-05 00:34:00,1960E-3,5C000000,-0724,0837,12108,027.1,045.4,0.441,753.2,01.17,0.508
2017-02-05 00:35:00,1852E-3,5C000000,-0724,0836,12028,027.1,045.4,0.442,753.2,01.17,0.508
2017-02-05 00:36:00,1852E-3,5C000000,-0724,0837,12133,027.1,045.4,0.442,753.1,01.17,0.508
2017-02-05 00:37:00,1801E-3,5C000000,-0724,0836,11987,027.1,045.4,0.441,753.1,01.17,0.508
2017-02-05 00:38:00,1845E-3,5C000000,-0724,0838,12106,027.1,045.4,0.442,753.1,01.17,0.508
2017-02-05 00:39:00,1868E-3,5C000000,-0724,0837,12064,027.1,045.4,0.441,753.2,01.17,0.508
2017-02-05 00:40:00,1916E-3,5C000000,-0724,0838,12077,027.1,045.4,0.441,753.2,01.17,0.508
2017-02-05 00:41:00,1790E-3,5C000000,-0724,0837,11984,027.1,045.4,0.442,753.1,01.17,0.508
2017-02-05 00:42:00,1868E-3,5C000000,-0724,0838,12114,027.1,045.4,0.441,753.1,01.17,0.508
2017-02-05 00:43:00,1854E-3,5C000000,-0724,0838,12023,027.1,045.4,0.441,753.2,01.17,0.508
2017-02-05 00:44:00,1800E-3,5C000000,-0724,0837,12080,027.1,045.4,0.442,753.2,01.17,0.508
2017-02-05 00:45:00,1798E-3,5C000000,-0724,0838,12020,027.1,045.4,0.441,753.2,01.17,0.508
2017-02-05 00:46:00,1769E-3,5C000000,-0724,0838,11936,027.1,045.4,0.441,753.2,01.17,0.508
2017-02-05 00:47:00,1914E-3,5C000000,-0724,0836,12005,027.1,045.4,0.442,753.2,01.17,0.508
2017-02-05 00:48:00,1791E-3,5C000000,-0724,0837,12035,027.1,045.4,0.441,753.2,01.17,0.508
2017-02-05 00:49:00,1841E-3,5C000000,-0724,0837,12110,027.1,045.4,0.441,753.2,01.17,0.508
2017-02-05 00:50:00,1942E-3,5C000000,-0724,0838,12065,027.1,045.4,0.442,753.2,01.17,0.508
2017-02-05 00:51:00,1899E-3,5C000000,-0724,0838,12096,027.1,045.4,0.441,753.2,01.17,0.508
2017-02-05 00:52:00,1777E-3,5C000000,-0724,0837,12115,027.1,045.4,0.441,753.2,01.17,0.508
2017-02-05 00:53:00,1908E-3,5C000000,-0724,0838,12050,027.1,045.4,0.442,753.2,01.17,0.508
2017-02-05 00:54:00,1847E-3,5C000000,-0724,0837,11992,027.1,045.4,0.441,753.2,01.17,0.508
2017-02-05 00:55:00,1863E-3,5C000000,-0724,0837,11861,027.1,045.4,0.441,753.2,01.17,0.508
2017-02-05 00:56:00,1802E-3,5C000000,-0724,0838,12193,027.1,045.4,0.442,753.2,01.17,0.508
2017-02-05 00:57:00,1906E-3,5C000000,-0724,0837,12043,027.1,045.4,0.441,753.2,01.17,0.508
2017-02-05 00:58:00,1838E-3,5C000000,-0724,0837,12145,027.1,045.4,0.441,753.2,01.17,0.508
2017-02-05 00:59:00,1824E-3,5C000000,-0724,0838,12116,027.1,045.4,0.442,753.2,01.17,0.508
2017-02-05 01:00:00,1854E-3,5C000000,-0724,0837,12101,027.1,045.4,0.441,753.2,01.17,0.508
2017-02-05 01:01:00,1819E-3,5C000000,-0724,0836,11936,027.1,045.4,0.441,753.2,01.17,0.508
2017-02-05 01:02:00,1996E-3,5C000000,-0724,0837,12148,027.1,045.4,0.442,753.2,01.17,0.508
2017-02-05 01:03:00,1732E-3,5C000000,-0724,0837,12273,027.1,045.4,0.442,753.2,01.17,0.508
2017-02-05 01:04:00,1806E-3,5C000000,-0724,0837,11915,027.1,045.4,0.441,753.2,01.17,0.508
2017-02-05 01:05:00,1900E-3,5C000000,-0724,0838,12092,027.1,045.4,0.442,753.3,01.17,0.508
2017-02-05 01:06:00,1884E-3,5C000000,-0724,0837,12002,027.1,045.4,0.442,753.3,01.17,0.508
2017-02-05 01:07:00,1804E-3,5C000000,-0724,0837,11918,027.1,045.4,0.441,753.3,01.17,0.508
2017-02-05 01:08:00,1788E-3,5C000000,-0724,0837,12037,027.1,045.4,0.442,753.3,01.17,0.508
2017-02-05 01:09:00,1906E-3,5C000000,-0724,0837,12090,027.1,045.4,0.442,753.2,01.17,0.508
2017-02-05 01:10:00,1882E-3,5C000000,-0724,0837,12121,027.1,045.4,0.441,753.2,01.17,0.508
2017-02-05 01:11:00,1860E-3,5C000000,-0724,0837,11994,027.1,045.4,0.442,753.2,01.17,0.508
2017-02-05 01:12:00,1827E-3,5C000000,-0724,0837,12118,027.1,045.4,0.441,753.2,01.17,0.508
2017-02-05 01:13:00,1875E-3,5C000000,-0724,0837,12191,027.1,045.4,0.441,753.2,01.17,0.508
2017-02-05 01:14:00,1841E-3,5C000000,-0724,0837,12018,027.1,045.4,0.442,753.2,01.17,0.508
2017-02-05 01:15:00,1839E-3,5C000000,-0724,0837,12263,027.1,045.4,0.441,753.2,01.17,0.508
2017-02-05 01:16:00,1840E-3,5C000000,-0724,0837,12064,027.1,045.4,0.441,753.2,01.17,0.508
2017-02-05 01:17:00,1912E-3,5C000000,-0724,0837,12235,027.1,045.4,0.442,753.2,01.17,0.508
2017-02-05 01:18:00,1740E-3,5C000000,-0724,0838,12122,027.1,045.4,0.441,753.3,01.17,0.508
2017-02-05 01:19:00,1855E-3,5C000000,-0724,0838,12130,027.1,045.4,0.442,753.3,01.17,0.508
2017-02-05 01:20:00,1951E-3,5C000000,-0724,0837,12189,027.1,045.4,0.442,753.3,01.17,0.508
2017-02-05 01:21:00,1818E-3,5C000000,-0724,0838,12132,027.1,045.4,0.441,753.3,01.17,0.508
2017-02-05 01:22:00,1862E-3,5C000000,-0724,0837,12115,027.1,045.4,0.442,753.3,01.17,0.508
2017-02-05 01:23:00,1843E-3,5C000000,-0724,0837,12042,027.1,045.4,0.442,753.3,01.17,0.508
2017-02-05 01:24:00,1862E-3,5C000000,-0724,0837,12184,027.1,045.4,0.441,753.3,01.17,0.508
2017-02-05 01:25:00,1629E-3,5C000000,-0724,0837,11945,027.1,045.4,0.442,753.4,01.17,0.508
2017-02-05 01:26:00,1869E-3,5C000000,-0724,0838,12172,027.1,045.4,0.442,753.3,01.17,0.508
2017-02-05 01:27:00,1874E-3,5C000000,-0724,0837,11999,027.1,045.4,0.441,753.4,01.17,0.508
2017-02-05 01:28:00,1796E-3,5C000000,-0724,0838,11995,027.1,045.4,0.442,753.4,01.17,0.508
2017-02-05 01:29:00,1872E-3,5C000000,-0724,0838,11997,027.1,045.4,0.441,753.3,01.17,0.508
2017-02-05 01:30:00,1889E-3,5C000000,-0724,0837,12228,027.1,045.4,0.441,753.3,01.17,0.508
2017-02-05 01:31:00,1694E-3,5C000000,-0724,0836,12049,027.1,045.4,0.442,753.3,01.17,0.508
2017-02-05 01:32:00,1858E-3,5C000000,-0724,0837,12035,027.1,045.4,0.441,753.3,01.17,0.508
2017-02-05 01:33:00,1854E-3,5C000000,-0724,0837,12061,027.1,045.4,0.441,753.3,01.17,0.508
2017-02-05 01:34:00,1829E-3,5C000000,-0724,0838,12092,027.1,045.4,0.442,753.3,01.17,0.508
2017-02-05 01:35:00,1801E-3,5C000000,-0724,0837,12195,027.1,045.4,0.442,753.3,01.17,0.508
2017-02-05 01:36:00,1855E-3,5C000000,-0724,0838,12144,027.1,045.4,0.441,753.4,01.17,0.508
2017-02-05 01:37:00,1767E-3,5C000000,-0724,0838,12014,027.1,045.4,0.442,753.4,01.17,0.508
2017-02-05 01:38:00,1820E-3,5C000000,-0724,0838,12139,027.1,045.4,0.441,753.4,01.17,0.508
2017-02-05 01:39:00,1874E-3,5C000000,-0724,0837,12053,027.1,045.4,0.441,753.4,01.17,0.508
2017-02-05 01:40:00,1810E-3,5C000000,-0724,0838,12063,027.1,045.4,0.442,753.4,01.17,0.508
2017-02-05 01:41:00,1770E-3,5C000000,-0724,0838,12171,027.1,045.4,0.442,753.3,01.17,0.508
2017-02-05 01:42:00,1887E-3,5C000000,-0724,0838,12149,027.1,045.4,0.441,753.4,01.17,0.508
2017-02-05 01:43:00,1931E-3,5C000000,-0724,0837,12082,027.1,045.4,0.442,753.4,01.17,0.508
2017-02-05 01:44:00,1755E-3,5C000000,-0724,0837,12018,027.1,045.4,0.441,753.4,01.17,0.508
2017-02-05 01:45:00,1918E-3,5C000000,-0724,0838,12053,027.1,045.4,0.442,753.4,01.17,0.508
2017-02-05 01:46:00,1867E-3,5C000000,-0724,0837,12231,027.1,045.4,0.442,753.4,01.17,0.508
2017-02-05 01:47:00,1780E-3,5C000000,-0724,0837,12172,027.1,045.4,0.441,753.4,01.17,0.508
2017-02-05 01:48:00,1858E-3,5C000000,-0724,0838,12026,027.1,045.4,0.442,753.4,01.17,0.508
2017-02-05 01:49:00,1889E-3,5C000000,-0724,0837,12185,027.1,045.4,0.442,753.4,01.17,0.508
2017-02-05 01:50:00,1616E-3,5C000000,-0724,0837,12077,027.1,045.4,0.441,753.4,01.17,0.508
2017-02-05 01:51:00,1828E-3,5C000000,-0724,0838,12106,027.1,045.4,0.442,753.4,01.17,0.508
2017-02-05 01:52:00,1732E-3,5C000000,-0724,0837,12124,027.1,045.4,0.442,753.4,01.17,0.508
2017-02-05 01:53:00,1825E-3,5C000000,-0724,0838,12063,027.1,045.4,0.441,753.4,01.17,0.508
2017-02-05 01:54:00,1788E-3,5C000000,-0724,0837,11932,027.1,045.4,0.442,753.4,01.17,0.508
2017-02-05 01:55:00,1879E-3,5C000000,-0724,0837,12089,027.1,045.4,0.441,753.4,01.17,0.508
2017-02-05 01:56:00,1914E-3,5C000000,-0724,0837,12102,027.1,045.4,0.441,753.5,01.17,0.508
2017-02-05 01:57:00,1845E-3,5C000000,-0724,0838,12001,027.1,045.4,0.442,753.5,01.17,0.508
2017-02-05 01:58:00,1642E-3,5C000000,-0724,0838,11904,027.1,045.4,0.441,753.5,01.17,0.508
2017-02-05 01:59:00,1925E-3,5C000000,-0724,0837,12182,027.1,045.4,0.441,753.5,01.17,0.508
2017-02-05 02:00:00,1859E-3,5C000000,-0724,0837,12104,027.1,045.4,0.442,753.5,01.17,0.508
2017-02-05 02:01:00,1855E-3,5C000000,-0724,0837,11968,027.1,045.4,0.441,753.5,01.17,0.508
2017-02-05 02:02:00,1820E-3,5C000000,-0724,0837,12130,027.1,045.4,0.442,753.5,01.17,0.508
2017-02-05 02:03:00,1871E-3,5C000000,-0724,0837,12201,027.1,045.4,0.442,753.5,01.17,0.508
2017-02-05 02:04:00,1980E-3,5C000000,-0724,0837,11995,027.1,045.4,0.441,753.5,01.17,0.508
2017-02-05 02:05:00,1857E-3,5C000000,-0724,0837,12137,027.1,045.4,0.442,753.5,01.17,0.508
2017-02-05 02:06:00,1744E-3,5C000000,-0724,0837,12271,027.1,045.4,0.442,753.5,01.17,0.508
2017-02-05 02:07:00,1837E-3,5C000000,-0724,0837,11938,027.1,045.4,0.441,753.5,01.17,0.508
2017-02-05 02:08:00,1850E-3,5C000000,-0724,0837,12183,027.1,045.4,0.442,753.5,01.17,0.508
2017-02-05 02:09:00,1701E-3,5C000000,-0724,0837,12050,027.1,045.4,0.441,753.5,01.17,0.508
2017-02-05 02:10:00,1655E-3,5C000000,-0724,0838,12175,027.1,045.4,0.441,753.5,01.17,0.508
2017-02-05 02:11:00,1819E-3,5C000000,-0724,0837,12012,027.1,045.4,0.442,753.5,01.17,0.508
2017-02-05 02:12:00,1963E-3,5C000000,-0724,0837,12075,027.1,045.4,0.441,753.5,01.17,0.508
2017-02-05 02:13:00,1788E-3,5C000000,-0724,0838,12031,027.1,045.4,0.441,753.5,01.17,0.508
2017-02-05 02:14:00,1750E-3,5C000000,-0724,0837,12072,027.1,045.4,0.442,753.5,01.17,0.508
2017-02-05 02:15:00,1753E-3,5C000000,-0724,0837,12142,027.1,045.4,0.441,753.5,01.17,0.508
2017-02-05 02:16:00,1816E-3,5C000000,-0724,0838,11953,027.1,045.4,0.442,753.6,01.17,0.508
2017-02-05 02:17:00,1764E-3,5C000000,-0724,0837,11992,027.1,045.4,0.442,753.6,01.17,0.508
2017-02-05 02:18:00,1805E-3,5C000000,-0724,0837,11983,027.1,045.4,0.441,753.6,01.17,0.508
2017-02-05 02:19:00,1800E-3,5C000000,-0724,0837,12109,027.1,045.4,0.442,753.5,01.17,0.508
2017-02-05 02:20:00,1781E-3,5C000000,-0724,0837,12012,027.1,045.4,0.442,753.5,01.17,0.508
2017-02-05 02:21:00,1824E-3,5C000000,-0724,0837,12088,027.1,045.4,0.441,753.5,01.17,0.508
2017-02-05 02:22:00,1929E-3,5C000000,-0724,0838,12050,027.1,045.4,0.442,753.5,01.17,0.508
2017-02-05 02:23:00,1718E-3,5C000000,-0724,0838,12112,027.1,045.4,0.442,753.5,01.17,0.508
2017-02-05 02:24:00,1820E-3,5C000000,-0724,0838,12078,027.1,045.4,0.441,753.5,01.17,0.508
2017-02-05 02:25:00,1869E-3,5C000000,-0724,0837,11916,027.1,045.4,0.442,753.5,01.17,0.508
2017-02-05 02:26:00,1857E-3,5C000000,-0724,0838,12028,027.1,045.4,0.442,753.5,01.17,0.508
2017-02-05 02:27:00,1794E-3,5C000000,-0724,0837,12054,027.1,045.4,0.441,753.5,01.17,0.508
2017-02-05 02:28:00,1826E-3,5C000000,-0724,0837,11911,027.1,045.4,0.442,753.5,01.17,0.508
2017-02-05 02:29:00,1873E-3,5C000000,-0724,0837,12031,027.1,045.4,0.442,753.5,01.17,0.508
2017-02-05 02:30:00,1690E-3,5C000000,-0724,0837,12051,027.1,045.4,0.441,753.5,01.17,0.508
2017-02-05 02:31:00,1837E-3,5C000000,-0724,0837,12128,027.1,045.4,0.442,753.5,01.17,0.508
2017-02-05 02:32:00,1865E-3,5C000000,-0724,0837,11893,027.1,045.4,0.442,753.5,01.17,0.508
2017-02-05 02:33:00,1746E-3,5C000000,-0724,0837,12161,027.1,045.4,0.441,753.5,01.17,0.508
2017-02-05 02:34:00,1885E-3,5C000000,-0724,0836,12054,027.1,045.4,0.442,753.5,01.17,0.508
2017-02-05 02:35:00,1882E-3,5C000000,-0724,0838,12092,027.1,045.4,0.441,753.5,01.17,0.508
2017-02-05 02:36:00,1800E-3,5C000000,-0724,0838,12078,027.1,045.4,0.442,753.5,01.17,0.508
2017-02-05 02:37:00,1943E-3,5C000000,-0724,0838,12020,027.1,045.4,0.442,753.5,01.17,0.508
2017-02-05 02:38:00,1876E-3,5C000000,-0724,0838,12097,027.1,045.4,0.441,753.5,01.17,0.508
2017-02-05 02:39:00,1901E-3,5C000000,-0724,0837,12018,027.1,045.4,0.442,753.6,01.17,0.508
2017-02-05 02:40:00,1828E-3,5C000000,-0724,0837,12123,027.1,045.4,0.442,753.6,01.17,0.508
2017-02-05 02:41:00,1834E-3,5C000000,-0724,0837,12104,027.1,045.4,0.441,753.6,01.17,0.508
2017-02-05 02:42:00,1820E-3,5C000000,-0724,0837,12077,027.1,045.4,0.442,753.6,01.17,0.508
2017-02-05 02:43:00,1776E-3,5C000000,-0724,0837,12035,027.1,045.4,0.442,753.7,01.17,0.508
2017-02-05 02:44:00,1828E-3,5C000000,-0724,0838,12117,027.1,045.4,0.441,753.7,01.17,0.508
2017-02-05 02:45:00,1855E-3,5C000000,-0724,0838,11969,027.1,045.4,0.442,753.6,01.17,0.508
2017-02-05 02:46:00,1893E-3,5C000000,-0724,0837,12093,027.1,045.4,0.442,753.6,01.17,0.508
2017-02-05 02:47:00,1721E-3,5C000000,-0724,0837,12066,027.1,045.4,0.441,753.6,01.17,0.508
2017-02-05 02:48:00,1745E-3,5C000000,-0724,0837,11944,027.1,045.4,0.442,753.6,01.17,0.508
2017-02-05 02:49:00,1799E-3,5C000000,-0724,0837,12110,027.1,045.4,0.442,753.6,01.17,0.508
2017-02-05 02:50:00,1912E-3,5C000000,-0724,0836,12051,027.1,045.4,0.441,753.6,01.17,0.508
2017-02-05 02:51:00,1759E-3,5C000000,-0724,0838,11993,027.1,045.4,0.442,753.6,01.17,0.508
2017-02-05 02:52:00,1831E-3,5C000000,-0724,0837,12139,027.1,045.4,0.442,753.6,01.17,0.508
2017-02-05 02:53:00,1916E-3,5C000000,-0724,0837,12091,027.1,045.4,0.441,753.6,01.17,0.508
2017-02-05 02:54:00,1787E-3,5C000000,-0724,0837,12027,027.1,045.4,0.442,753.6,01.17,0.508
2017-02-05 02:55:00,1856E-3,5C000000,-0724,0837,12147,027.1,045.4,0.441,753.6,01.17,0.508
2017-02-05 02:56:00,1805E-3,5C000000,-0724,0837,12132,027.1,045.4,0.441,753.6,01.17,0.508
2017-02-05 02:57:00,1885E-3,5C000000,-0724,0837,12000,027.1,045.4,0.442,753.6,01.17,0.508
2017-02-05 02:58:00,1747E-3,5C000000,-0724,0837,11887,027.1,045.4,0.441,753.6,01.17,0.508
2017-02-05 02:59:00,1834E-3,5C000000,-0724,0837,12086,027.1,045.4,0.441,753.5,01.17,0.508
2017-02-05 03:00:00,1773E-3,5C000000,-0724,0837,12146,027.1,045.4,0.442,753.5,01.17,0.508
2017-02-05 03:01:00,1858E-3,5C000000,-0724,0838,11984,027.1,045.4,0.441,753.6,01.17,0.508
2017-02-05 03:02:00,1823E-3,5C000000,-0724,0837,12146,027.1,045.4,0.442,753.6,01.17,0.508
2017-02-05 03:03:00,1965E-3,5C000000,-0724,0837,11890,027.1,045.4,0.442,753.6,01.17,0.508
2017-02-05 03:04:00,1740E-3,5C000000,-0724,0837,12086,027.1,045.4,0.441,753.6,01.17,0.508
2017-02-05 03:05:00,1775E-3,5C000000,-0724,0837,12034,027.1,045.4,0.442,753.5,01.17,0.508
2017-02-05 03:06:00,1806E-3,5C000000,-0724,0838,12080,027.1,045.4,0.442,753.6,01.17,0.508
2017-02-05 03:07:00,1808E-3,5C000000,-0724,0837,12105,027.1,045.4,0.441,753.6,01.17,0.508
2017-02-05 03:08:00,1964E-3,5C000000,-0724,0839,11977,027.1,045.4,0.442,753.6,01.17,0.508
2017-02-05 03:09:00,1783E-3,5C000000,-0724,0837,11987,027.1,045.4,0.441,753.6,01.17,0.508
2017-02-05 03:10:00,1824E-3,5C000000,-0724,0837,12120,027.1,045.4,0.441,753.6,01.17,0.508
2017-02-05 03:11:00,1924E-3,5C000000,-0724,0837,11873,027.1,045.4,0.442,753.6,01.17,0.508
2017-02-05 03:12:00,1787E-3,5C000000,-0724,0837,12106,027.1,045.4,0.441,753.6,01.17,0.508
2017-02-05 03:13:00,1858E-3,5C000000,-0724,0837,12036,027.1,045.4,0.441,753.5,01.17,0.508
2017-02-05 03:14:00,1861E-3,5C000000,-0724,0838,12036,027.1,045.4,0.442,753.6,01.17,0.508
2017-02-05 03:15:00,1872E-3,5C000000,-0724,0838,12178,027.1,045.4,0.441,753.6,01.17,0.508
2017-02-05 03:16:00,1868E-3,5C000000,-0724,0837,12176,027.1,045.4,0.441,753.6,01.17,0.508
2017-02-05 03:17:00,1902E-3,5C000000,-0724,0837,12037,027.1,045.4,0.442,753.6,01.17,0.508
2017-02-05 03:18:00,1785E-3,5C000000,-0724,0837,12054,027.1,045.4,0.441,753.7,01.17,0.508
2017-02-05 03:19:00,1859E-3,5C000000,-0724,0838,12157,027.1,045.4,0.441,753.7,01.17,0.508
2017-02-05 03:20:00,1947E-3,5C000000,-0724,0837,12172,027.2,045.4,0.442,753.7,01.17,0.508
2017-02-05 03:21:00,1808E-3,5C000000,-0724,0837,12051,027.1,045.4,0.441,753.7,01.17,0.508
2017-02-05 03:22:00,1942E-3,5C000000,-0724,0837,12054,027.2,045.4,0.442,753.7,01.17,0.508
2017-02-05 03:23:00,1728E-3,5C000000,-0724,0837,12020,027.2,045.4,0.442,753.7,01.17,0.508
2017-02-05 03:24:00,1825E-3,5C000000,-0724,0838,12006,027.2,045.4,0.441,753.7,01.17,0.508
2017-02-05 03:25:00,1873E-3,5C000000,-0724,0837,12096,027.2,045.4,0.442,753.7,01.17,0.508
2017-02-05 03:26:00,1791E-3,5C000000,-0724,0837,12128,027.1,045.4,0.442,753.7,01.17,0.508
2017-02-05 03:27:00,1746E-3,5C000000,-0724,0838,11870,027.1,045.4,0.441,753.7,01.17,0.508
2017-02-05 03:28:00,1869E-3,5C000000,-0724,0837,12231,027.2,045.4,0.442,753.7,01.17,0.508
2017-02-05 03:29:00,1720E-3,5C000000,-0724,0838,11996,027.2,045.4,0.441,753.7,01.17,0.508
2017-02-05 03:30:00,1748E-3,5C000000,-0724,0839,11729,027.1,045.4,0.441,753.8,01.17,0.508
2017-02-05 03:31:00,1836E-3,5C000000,-0724,0837,12094,027.1,045.4,0.442,753.8,01.17,0.508
2017-02-05 03:32:00,1799E-3,5C000000,-0724,0837,11937,027.1,045.4,0.441,753.6,01.17,0.508
2017-02-05 03:33:00,1801E-3,5C000000,-0724,0837,12043,027.2,045.4,0.442,754.0,01.17,0.508
2017-02-05 03:34:00,1804E-3,5C000000,-0724,0837,12030,027.2,045.4,0.442,753.8,01.17,0.508
2017-02-05 03:35:00,1726E-3,5C000000,-0724,0837,12041,027.2,045.4,0.441,753.8,01.17,0.508
2017-02-05 03:36:00,1930E-3,5C000000,-0724,0838,11924,027.2,045.4,0.442,753.8,01.17,0.508
2017-02-05 03:37:00,1882E-3,5C000000,-0724,0837,12224,027.2,045.4,0.442,753.8,01.17,0.508
2017-02-05 03:38:00,1869E-3,5C000000,-0724,0837,12073,027.2,045.4,0.441,753.8,01.17,0.508
2017-02-05 03:39:00,1804E-3,5C000000,-0724,0837,12068,027.2,045.4,0.442,753.8,01.17,0.508
2017-02-05 03:40:00,1771E-3,5C000000,-0724,0837,12236,027.2,045.4,0.441,753.8,01.17,0.508
2017-02-05 03:41:00,1864E-3,5C000000,-0724,0838,12043,027.2,045.4,0.441,753.8,01.17,0.508
2017-02-05 03:42:00,1817E-3,5C000000,-0724,0837,12090,027.2,045.4,0.442,753.8,01.17,0.508
2017-02-05 03:43:00,1877E-3,5C000000,-0724,0837,12060,027.2,045.4,0.441,753.8,01.17,0.508
2017-02-05 03:44:00,1806E-3,5C000000,-0724,0837,12013,027.2,045.4,0.441,753.8,01.17,0.508
2017-02-05 03:45:00,1789E-3,5C000000,-0724,0838,12035,027.2,045.4,0.442,753.8,01.17,0.508
2017-02-05 03:46:00,1671E-3,5C000000,-0724,0837,12031,027.2,045.4,0.441,753.9,01.17,0.508
2017-02-05 03:47:00,1880E-3,5C000000,-0724,0838,12033,027.2,045.4,0.442,753.9,01.17,0.508
2017-02-05 03:48:00,1898E-3,5C000000,-0724,0837,11870,027.2,045.4,0.442,753.9,01.17,0.508
2017-02-05 03:49:00,1861E-3,5C000000,-0724,0837,12060,027.2,045.4,0.441,753.9,01.17,0.508
2017-02-05 03:50:00,1712E-3,5C000000,-0724,0837,11958,027.2,045.4,0.442,753.9,01.17,0.508
2017-02-05 03:51:00,1799E-3,5C000000,-0724,0838,12160,027.2,045.4,0.441,753.9,01.17,0.508
2017-02-05 03:52:00,1775E-3,5C000000,-0724,0837,12159,027.2,045.4,0.442,753.9,01.17,0.508
2017-02-05 03:53:00,1778E-3,5C000000,-0724,0837,12107,027.2,045.4,0.442,753.9,01.17,0.508
2017-02-05 03:54:00,1792E-3,5C000000,-0724,0837,11877,027.2,045.4,0.441,753.9,01.17,0.508
2017-02-05 03:55:00,1828E-3,5C000000,-0724,0837,12100,027.2,045.4,0.442,753.9,01.17,0.508
2017-02-05 03:56:00,1835E-3,5C000000,-0724,0838,12266,027.2,045.4,0.442,753.9,01.17,0.508
2017-02-05 03:57:00,1831E-3,5C000000,-0724,0838,12157,027.2,045.4,0.441,753.9,01.17,0.508
2017-02-05 03:58:00,1811E-3,5C000000,-0724,0837,12165,027.2,045.4,0.442,753.9,01.17,0.508
2017-02-05 03:59:00,1763E-3,5C000000,-0724,0837,12044,027.2,045.4,0.441,753.9,01.17,0.508
2017-02-05 04:00:00,1831E-3,5C000000,-0724,0837,12128,027.2,045.4,0.441,753.9,01.17,0.508
2017-02-05 04:01:00,1803E-3,5C000000,-0724,0837,12168,027.2,045.4,0.442,753.9,01.17,0.508
2017-02-05 04:02:00,1843E-3,5C000000,-0724,0837,12006,027.2,045.4,0.441,753.9,01.17,0.508
2017-02-05 04:03:00,1760E-3,5C000000,-0724,0837,11742,027.2,045.4,0.442,753.9,01.17,0.508
2017-02-05 04:04:00,1887E-3,5C000000,-0724,0837,11995,027.2,045.4,0.441,753.9,01.17,0.508
2017-02-05 04:05:00,1733E-3,5C000000,-0724,0837,12006,027.2,045.4,0.441,753.9,01.17,0.508
2017-02-05 04:06:00,1804E-3,5C000000,-0724,0837,12089,027.2,045.4,0.442,753.9,01.17,0.508
2017-02-05 04:07:00,1786E-3,5C000000,-0724,0838,11945,027.2,045.4,0.441,753.9,01.17,0.508
2017-02-05 04:08:00,1782E-3,5C000000,-0724,0837,12285,027.2,045.4,0.442,754.0,01.17,0.508
2017-02-05 04:09:00,1674E-3,5C000000,-0724,0836,12128,027.2,045.4,0.441,753.9,01.17,0.508
2017-02-05 04:10:00,1936E-3,5C000000,-0724,0836,12108,027.2,045.4,0.441,753.9,01.17,0.508
2017-02-05 04:11:00,1829E-3,5C000000,-0724,0837,12102,027.2,045.4,0.442,753.9,01.17,0.508
2017-02-05 04:12:00,1798E-3,5C000000,-0724,0837,12154,027.3,045.4,0.441,753.9,01.17,0.508
2017-02-05 04:13:00,1727E-3,5C000000,-0724,0836,12026,027.3,045.4,0.441,753.9,01.17,0.508
2017-02-05 04:14:00,1855E-3,5C000000,-0724,0837,12108,027.2,045.4,0.442,753.9,01.17,0.508
2017-02-05 04:15:00,1858E-3,5C000000,-0724,0837,12064,027.3,045.4,0.441,753.9,01.17,0.508
2017-02-05 04:16:00,1945E-3,5C000000,-0724,0838,12046,027.3,045.4,0.442,753.9,01.17,0.508
2017-02-05 04:17:00,1790E-3,5C000000,-0724,0837,11996,027.3,045.4,0.441,753.9,01.17,0.508
2017-02-05 04:18:00,1808E-3,5C000000,-0724,0837,12034,027.3,045.4,0.442,753.9,01.17,0.508
2017-02-05 04:19:00,1904E-3,5C000000,-0724,0838,12106,027.3,045.4,0.442,753.9,01.17,0.508
2017-02-05 04:20:00,1841E-3,5C000000,-0724,0836,11981,027.3,045.4,0.441,753.9,01.17,0.508